Weather History for Bangor, ME

Change the Weather History Date:

Friday, February 24, 2012

  Actual Average Record
Temperature  
Mean Temperature 34 °F 23 °F  
Max Temperature 41 °F 34 °F 53 °F (1930)
Min Temperature 27 °F 13 °F -26 °F (1929)
Degree Days  
Heating Degree Days 31 42  
Month to date heating degree days 920 1075  
Since 1 July heating degree days 4629 5482  
Cooling Degree Days 0 0  
Month to date cooling degree days 0 0  
Year to date cooling degree days 0 0  
Moisture  
Dew Point 28 °F    
Average Humidity 72    
Maximum Humidity 89    
Minimum Humidity 54    
Precipitation  
Precipitation 0.34 in 0.09 in 0.85 in (1979)
Month to date precipitation 1.14 2.13  
Year to date precipitation 3.09 5.02  
Snow  
Snow 2.60 in 0.50 in 10.00 in (1962)
Month to date snowfall 3.4 12.8  
Since 1 July snowfall 37.7 48.8  
Snow Depth 0.00 in    
Sea Level Pressure  
Sea Level Pressure 29.57 in    
Wind  
Wind Speed 5 mph (ESE)    
Max Wind Speed 16 mph    
Max Gust Speed 21 mph    
Visibility 5 miles    
Events Fog , Rain , Snow    
T = Trace of Precipitation, MM = Missing Value Source: NWS Daily Summary

Daily Weather History Graph

Daily Weather History Graph

Search for Another Location

Airport:

Trip Planner

Search our weather history database for the weather conditions in past years. The results will help you decide how hot, cold, wet, or windy it might be!

Date:

Astronomy

Feb. 24, 2012 Rise Set
Actual Time 6:22 AM EST 5:15 PM EST
Civil Twilight 5:52 AM EST 5:45 PM EST
Nautical Twilight 5:18 AM EST 6:18 PM EST
Astronomical Twilight 4:45 AM EST 6:52 PM EST
Moon 7:05 AM EST (2/24) 8:26 PM EST (2/24)
Length of Visible Light 11h 52m
Length of Day
10h 53m
Waxing Crescent, 7% of the Moon is Illuminated
Feb 24
Waxing Crescent
Feb 29
First Quarter
Mar 8
Full
Mar 14
Last Quarter
Mar 22
New

Hourly Weather History & Observations

Time (EST) Temp. Windchill Dew Point Humidity Pressure Visibility Wind Dir Wind Speed Gust Speed Precip Events Conditions
12:53 AM 27.0 °F - 23.0 °F 85% 29.69 in 10.0 mi Calm Calm - N/A   Clear
1:53 AM 30.9 °F 26.2 °F 24.1 °F 76% 29.70 in 10.0 mi South 4.6 mph - N/A   Clear
2:53 AM 30.9 °F 27.5 °F 24.1 °F 76% 29.72 in 10.0 mi West 3.5 mph - N/A   Clear
3:53 AM 30.9 °F 27.5 °F 23.0 °F 72% 29.73 in 10.0 mi West 3.5 mph - N/A   Clear
4:53 AM 30.0 °F 25.2 °F 23.0 °F 75% 29.77 in 10.0 mi WSW 4.6 mph - N/A   Scattered Clouds
5:53 AM 28.0 °F 24.2 °F 23.0 °F 81% 29.76 in 10.0 mi SW 3.5 mph - N/A   Overcast
6:53 AM 30.0 °F - 24.1 °F 79% 29.78 in 10.0 mi Calm Calm - N/A   Overcast
7:53 AM 30.9 °F 27.5 °F 25.0 °F 79% 29.78 in 10.0 mi SSW 3.5 mph - N/A   Overcast
8:53 AM 33.1 °F - 26.1 °F 75% 29.78 in 10.0 mi Calm Calm - N/A   Mostly Cloudy
9:53 AM 35.1 °F - 26.1 °F 70% 29.81 in 10.0 mi Calm Calm - N/A   Mostly Cloudy
10:53 AM 37.9 °F - 26.1 °F 62% 29.79 in 10.0 mi Calm Calm - N/A   Overcast
11:53 AM 39.0 °F - 26.1 °F 60% 29.77 in 10.0 mi Calm Calm - N/A   Overcast
12:53 PM 39.9 °F 37.8 °F 27.0 °F 60% 29.75 in 10.0 mi East 3.5 mph - N/A   Mostly Cloudy
1:53 PM 39.9 °F 35.1 °F 25.0 °F 55% 29.71 in 10.0 mi SSE 6.9 mph - N/A   Mostly Cloudy
2:53 PM 39.9 °F 35.8 °F 26.1 °F 58% 29.70 in 10.0 mi SSE 5.8 mph - N/A   Overcast
3:53 PM 39.0 °F 34.0 °F 25.0 °F 57% 29.68 in 10.0 mi SE 6.9 mph - N/A   Overcast
4:53 PM 37.0 °F 34.5 °F 25.0 °F 62% 29.66 in 10.0 mi SE 3.5 mph - N/A   Overcast
5:53 PM 37.0 °F 30.4 °F 25.0 °F 62% 29.62 in 10.0 mi ESE 9.2 mph - N/A   Overcast
6:53 PM 35.1 °F 30.1 °F 26.1 °F 70% 29.62 in 10.0 mi SSE 5.8 mph - N/A   Overcast
7:47 PM 33.8 °F 24.8 °F 30.2 °F 87% 29.56 in 0.5 mi ESE 12.7 mph - 0.00 in Fog , Snow Snow
7:53 PM 33.1 °F 24.9 °F 30.9 °F 92% 29.56 in 0.2 mi ESE 10.4 mph - 0.00 in Fog , Snow Snow
7:55 PM 33.8 °F 27.0 °F 30.2 °F 87% 29.55 in 0.8 mi ESE 8.1 mph - 0.00 in Snow Light Snow
8:03 PM 33.8 °F 27.0 °F 32.0 °F 93% 29.56 in 0.5 mi ESE 8.1 mph - 0.01 in Fog , Snow Light Snow
8:09 PM 33.8 °F 27.7 °F 32.0 °F 93% 29.54 in 2.0 mi ESE 6.9 mph - 0.01 in Snow Light Snow
8:53 PM 33.1 °F 26.9 °F 30.9 °F 92% 29.53 in 1.8 mi East 6.9 mph - 0.01 in Snow Light Snow
9:00 PM 33.8 °F 27.0 °F 30.2 °F 87% 29.52 in 1.8 mi East 8.1 mph - 0.01 in Snow Light Snow
9:03 PM 33.8 °F 26.4 °F 30.2 °F 87% 29.51 in 0.2 mi East 9.2 mph - 0.01 in Fog , Snow Light Snow
9:18 PM 33.8 °F 26.4 °F 30.2 °F 87% 29.47 in 0.5 mi East 9.2 mph - 0.03 in Fog , Snow Snow
9:38 PM 33.8 °F 26.4 °F 30.2 °F 87% 29.44 in 0.2 mi East 9.2 mph - 0.05 in Fog , Snow Snow
9:53 PM 33.1 °F 26.1 °F 30.9 °F 92% 29.43 in 0.5 mi East 8.1 mph - 0.07 in Fog , Snow Snow
10:14 PM 33.8 °F 27.0 °F 30.2 °F 87% 29.42 in 1.0 mi ESE 8.1 mph - 0.02 in Snow Snow
10:36 PM 33.8 °F 25.3 °F 30.2 °F 87% 29.38 in 0.8 mi East 11.5 mph - 0.06 in Snow Snow
10:40 PM 33.8 °F 25.3 °F 30.2 °F 87% 29.36 in 0.8 mi East 11.5 mph - 0.07 in Snow Snow
10:53 PM 33.1 °F 24.9 °F 30.9 °F 92% 29.34 in 0.2 mi East 10.4 mph - 0.09 in Fog , Snow Snow
10:56 PM 33.8 °F 25.8 °F 30.2 °F 87% 29.32 in 1.0 mi East 10.4 mph - 0.00 in Fog , Snow Snow
11:03 PM 33.8 °F 25.8 °F 30.2 °F 87% 29.32 in 0.2 mi East 10.4 mph 20.7 mph 0.01 in Fog , Snow Snow
11:15 PM 33.8 °F 25.3 °F 30.2 °F 87% 29.30 in 0.5 mi East 11.5 mph - 0.03 in Fog , Snow Snow
11:36 PM 33.8 °F 25.8 °F 30.2 °F 87% 29.25 in 1.0 mi East 10.4 mph - 0.06 in Snow Light Snow
11:53 PM 33.8 °F 25.8 °F 30.2 °F 87% 29.22 in 1.0 mi East 10.4 mph - N/A Rain , Snow Light Snow